#timestamp,LO_Frequency,Hit,StdDev 
1662951615.0,286046998.1,N
1662951615.9,286046998.1,N
1662951635.8,286046999.8,N
1662951655.6,286047000.1,N
1662951675.4,286047000.3,N
1662951695.3,286047000.5,N
1662951715.1,286047002.6,N
1662951735.8,286047002.7,N
1662951755.7,286047000.5,N
1662951775.5,286047000.0,N
1662951795.4,286046999.8,N
1662951815.2,286047001.9,N
1662951835.0,286047004.0,Y
1662951835.9,286047004.0,P
1662951855.8,286047002.4,N
1662951875.6,286047002.5,N
1662951895.5,286047000.1,N
1662951915.9,286047002.7,N
1662951935.7,286047002.2,N
1662951955.6,286047002.5,N
1662951975.4,286047000.3,N
1662951995.2,286047000.1,N
1662952015.1,286047002.0,N
1662952016.0,286047002.0,N
1662952035.8,286047002.5,N
1662952055.6,286047001.4,N
1662952075.5,286047001.4,N
1662952095.3,286047004.1,Y
1662952115.2,286047001.8,P
1662952135.9,286047003.6,P
1662952155.7,286047002.0,N
1662952175.6,286047002.3,N
1662952195.4,286047000.2,N
1662952215.2,286047000.5,N
1662952235.1,286047001.1,N
1662952236.0,286047001.1,N
1662952255.8,286047000.8,N
1662952275.7,286047000.2,N
1662952295.5,286046999.8,N
1662952315.3,286047000.1,N
1662952335.2,286047002.6,N
1662952355.0,286046999.9,N
1662952355.9,286046999.9,N
1662952375.8,286047000.8,N
1662952395.6,286047000.9,N
1662952415.4,286046998.6,N
1662952435.3,286047000.1,N
1662952455.1,286046999.8,N
1662952475.8,286047000.3,N
1662952495.7,286046999.7,N
1662952515.5,286047002.6,N
1662952535.4,286047002.6,N
1662952555.2,286047002.0,N
1662952575.0,286047001.5,N
1662952575.9,286047001.5,N
1662952595.8,286047001.8,N
1662952615.6,286047003.7,Y
1662952635.4,286047002.0,P
1662952655.3,286047000.2,N
1662952675.1,286047002.2,N
1662952695.9,286046998.6,N
1662952715.7,286046998.2,N
1662952735.5,286047000.4,N
1662952755.4,286047000.2,N
1662952775.2,286047002.7,N
1662952795.1,286047002.3,N
1662952796.0,286047002.3,N
1662952815.8,286046999.7,N
1662952835.6,286047001.6,N
1662952855.5,286047001.6,N
1662952875.3,286047002.4,N
1662952895.1,286047000.0,N
1662952915.9,286047000.9,N
1662952935.7,286046998.8,N
1662952955.6,286046999.5,N
1662952975.4,286046997.6,N
1662952995.2,286046999.6,N
1662953015.1,286046995.3,Y
1662953016.0,286046995.3,P
1662953035.8,286046996.1,N
1662953055.7,286046997.7,N
1662953075.5,286046996.7,N
1662953095.3,286046998.4,N
1662953115.2,286047000.4,N
1662953135.0,286047000.7,N
1662953135.9,286047000.7,N
1662953155.7,286047000.4,N
1662953175.6,286046999.3,N
1662953195.4,286046998.4,N
1662953215.3,286046998.7,N
1662953235.1,286047001.0,N
1662953236.0,286047001.0,N
1662953255.8,286047001.2,N
1662953275.7,286047000.8,N
1662953295.5,286047000.0,N
1662953315.3,286046998.2,N
1662953335.2,286046997.7,N
1662953355.0,286046995.0,N
1662953355.9,286046995.0,N
1662953375.8,286046999.2,N
1662953395.6,286046998.4,N
1662953415.4,286046998.3,N
1662953435.3,286046999.2,N
1662953455.1,286046998.7,N
1662953475.8,286047001.0,N
1662953495.7,286046998.9,N
1662953515.5,286046998.5,N
1662953535.4,286047000.8,N
1662953555.2,286047002.7,N
1662953575.0,286047002.2,N
1662953575.9,286047002.2,N
1662953595.8,286047002.2,N
1662953615.6,286046999.8,N
1662953635.4,286047000.4,N
1662953655.3,286047000.7,N
1662953675.1,286047001.0,N
1662953695.9,286047002.4,N
1662953715.7,286047001.7,N
1662953735.5,286047002.4,N
1662953755.4,286047002.1,N
1662953775.2,286047004.1,N
1662953795.0,286047003.7,N
1662953796.0,286047003.7,N
1662953815.8,286047003.7,N
1662953835.6,286047003.3,N
1662953855.5,286047003.1,N
1662953875.3,286047004.4,N
1662953895.1,286047001.3,N
1662953915.9,286047004.4,N
1662953935.7,286047001.8,N
1662953955.6,286047000.0,N
1662953975.4,286046999.8,N
1662953995.2,286047000.9,N
1662954015.1,286047000.3,N
1662954016.0,286047000.3,N
1662954035.8,286047000.4,N
1662954055.6,286046998.6,N
1662954075.5,286046999.3,N
1662954095.3,286046999.0,N
1662954115.2,286046999.4,N
1662954135.9,286046996.7,N
1662954155.7,286046997.7,N
1662954175.6,286046997.4,N
1662954195.4,286046998.0,N
1662954215.3,286046997.3,N
1662954235.1,286046996.9,N
1662954236.0,286046996.9,N
1662954255.8,286046997.2,N
1662954275.7,286046995.0,N
1662954295.5,286046997.9,N
1662954315.4,286046996.1,N
1662954335.2,286046996.2,N
1662954355.0,286046995.5,N
1662954355.9,286046995.5,N
1662954375.8,286046995.2,N
1662954395.6,286046998.0,N
1662954415.4,286046995.0,N
1662954435.3,286046994.9,N
1662954455.1,286046995.1,N
1662954475.9,286046995.8,N
1662954495.7,286046995.4,N
1662954515.5,286046996.2,N
1662954535.6,286046996.7,N
1662954555.4,286046995.0,Y
1662954575.3,286046999.2,P
1662954595.1,286046999.2,N
1662954615.9,286046996.8,P
1662954635.7,286046997.1,N
1662954655.5,286046997.8,N
1662954675.4,286046997.8,N
1662954695.2,286046997.9,N
1662954715.1,286046997.4,Y
1662954716.0,286046997.4,P
1662954735.8,286046998.9,P
1662954755.7,286046998.9,N
1662954775.5,286046999.4,N
1662954795.4,286046996.8,Y
1662954815.2,286047000.4,P
1662954835.0,286047000.9,N
1662954835.9,286047000.9,N
1662954855.8,286047000.1,N
1662954875.6,286047002.4,N
1662954895.4,286047002.8,N
1662954915.3,286047002.8,N
1662954935.1,286047000.5,N
1662954955.9,286047002.2,N
1662954975.7,286047002.3,N
1662954995.5,286047000.0,N
1662955015.4,286047000.6,N
1662955035.2,286046999.4,N
1662955055.1,286046998.7,N
1662955056.0,286046998.7,N
1662955075.8,286046998.9,N
1662955095.7,286046999.0,N
1662955115.5,286046998.4,N
1662955135.3,286046996.5,N
1662955155.2,286046999.2,N
1662955175.0,286046996.9,N
1662955175.9,286046996.9,N
1662955195.8,286046998.5,N
